Location: Choisy
(48.7685°N, 2.4187°E)
Time: 07:52:27
(UTC+00:00)

Envisat - Visible Passes

Search period start: 27 February 2024 00:00
Search period end: 08 March 2024 00:00
Orbit: 762 x 764 km, 98.3° (Epoch: 26 February)

Date Brightness Start Highest point End Pass type
(mag) Time Alt. Az. Time Alt. Az. Time Alt. Az.
27 Feb 5.5 02:17:07 10° NE 02:18:52 17° ENE 02:18:52 17° ENE visible
27 Feb 3.6 03:55:24 10° N 03:59:02 43° NNW 03:59:02 43° NNW visible
27 Feb 5.0 05:37:33 10° NW 05:38:17 10° NW 05:39:02 10° WNW visible
28 Feb 4.0 03:18:01 10° NNE 03:21:27 43° NNE 03:21:27 43° NNE visible
28 Feb 4.4 04:58:01 10° NNW 05:01:34 19° WNW 05:01:37 19° WNW visible
29 Feb 4.9 02:41:01 10° NNE 02:43:51 27° ENE 02:43:51 27° ENE visible
29 Feb 3.7 04:20:01 10° N 04:24:02 35° NW 04:24:02 35° NW visible
01 Mar 5.6 02:04:39 10° NE 02:06:15 15° ENE 02:06:15 15° ENE visible
01 Mar 3.4 03:42:26 10° N 03:46:25 53° N 03:46:25 53° N visible
01 Mar 4.8 05:23:23 10° NNW 05:25:36 13° NW 05:26:36 12° WNW visible
02 Mar 4.0 03:05:10 10° NNE 03:08:50 43° NE 03:08:50 43° NE visible
02 Mar 4.1 04:44:49 10° N 04:48:49 24° WNW 04:49:00 24° WNW visible
03 Mar 5.0 02:28:19 10° NE 02:31:14 24° ENE 02:31:14 24° ENE visible
03 Mar 3.4 04:06:59 10° N 04:11:25 44° NW 04:11:25 44° NW visible
04 Mar 5.8 01:52:27 10° ENE 01:53:39 12° ENE 01:53:39 12° ENE visible
04 Mar 3.2 03:29:30 10° NNE 03:33:49 65° NNE 03:33:49 65° NNE visible
04 Mar 4.6 05:09:54 10° NNW 05:12:54 16° NW 05:13:59 15° WNW visible
05 Mar 4.2 02:52:21 10° NNE 02:56:13 39° ENE 02:56:13 39° ENE visible
05 Mar 3.8 04:31:41 10° N 04:36:02 29° WNW 04:36:23 29° WNW visible
06 Mar 5.2 02:15:43 10° NE 02:18:38 21° ENE 02:18:38 21° ENE visible
06 Mar 3.1 03:53:59 10° N 03:58:48 57° WNW 03:58:48 57° WNW visible
06 Mar 5.0 05:35:59 10° NW 05:36:53 10° NW 05:37:47 10° WNW visible
07 Mar 3.2 03:16:36 10° NNE 03:21:13 66° ENE 03:21:13 66° ENE visible
07 Mar 4.4 04:56:35 10° NNW 05:00:09 20° WNW 05:01:23 18° WNW visible
